Time,TemperatureF,DewpointF,PressureIn,WindDirection,WindDirectionDegrees,WindSpeedMPH,WindSpeedGustMPH,Humidity,HourlyPrecipIn,Conditions,Clouds,dailyrainin,SoftwareType,DateUTC
2013-04-06 00:03:00,35.0,23.0,30.23,NE,44,4.0,6.0,61,0.00,,,0.00,,2013-04-06 04:03:00,
2013-04-06 00:14:00,35.0,23.0,30.23,NE,44,4.0,6.0,61,0.00,,,0.00,,2013-04-06 04:14:00,
2013-04-06 00:23:00,34.0,23.0,30.22,NE,45,4.0,5.0,64,0.00,,,0.00,,2013-04-06 04:23:00,
2013-04-06 00:33:00,34.0,23.0,30.22,NE,45,4.0,5.0,64,0.00,,,0.00,,2013-04-06 04:33:00,
2013-04-06 00:42:00,34.0,23.0,30.22,NE,45,4.0,5.0,64,0.00,,,0.00,,2013-04-06 04:42:00,
2013-04-06 00:53:00,33.0,23.0,30.22,NE,45,4.0,5.0,66,0.00,,,0.00,,2013-04-06 04:53:00,
2013-04-06 01:02:00,33.0,23.0,30.22,NE,51,4.0,6.0,67,0.00,,,0.00,,2013-04-06 05:02:00,
2013-04-06 01:13:00,33.0,23.0,30.22,NE,51,4.0,6.0,67,0.00,,,0.00,,2013-04-06 05:13:00,
2013-04-06 01:22:00,33.0,24.0,30.22,NE,46,4.0,6.0,68,0.00,,,0.00,,2013-04-06 05:22:00,
2013-04-06 01:32:00,33.0,24.0,30.22,NE,45,4.0,6.0,69,0.00,,,0.00,,2013-04-06 05:32:00,
2013-04-06 01:42:00,33.0,24.0,30.22,NE,45,4.0,6.0,69,0.00,,,0.00,,2013-04-06 05:42:00,
2013-04-06 01:52:00,34.0,25.0,30.24,ENE,60,5.0,7.0,70,0.00,,,0.00,,2013-04-06 05:52:00,
2013-04-06 02:03:00,34.0,25.0,30.24,ENE,60,5.0,7.0,70,0.00,,,0.00,,2013-04-06 06:03:00,
2013-04-06 02:12:00,34.0,25.0,30.24,ENE,60,5.0,7.0,70,0.00,,,0.00,,2013-04-06 06:12:00,
2013-04-06 02:22:00,34.0,25.0,30.24,ENE,60,5.0,7.0,70,0.00,,,0.00,,2013-04-06 06:22:00,
2013-04-06 02:32:00,33.0,25.0,30.23,NE,48,6.0,9.0,72,0.00,,,0.00,,2013-04-06 06:32:00,
2013-04-06 02:43:00,33.0,25.0,30.23,NE,48,6.0,9.0,72,0.00,,,0.00,,2013-04-06 06:43:00,
2013-04-06 02:53:00,34.0,26.0,30.23,ENE,63,7.0,9.0,71,0.00,,,0.00,,2013-04-06 06:53:00,
2013-04-06 03:03:00,34.0,26.0,30.23,ENE,59,6.0,10.0,71,0.00,,,0.00,,2013-04-06 07:03:00,
2013-04-06 03:12:00,34.0,26.0,30.23,ENE,59,6.0,10.0,71,0.00,,,0.00,,2013-04-06 07:12:00,
2013-04-06 03:22:00,34.0,26.0,30.23,ENE,60,5.0,7.0,71,0.00,,,0.00,,2013-04-06 07:22:00,
2013-04-06 03:33:00,34.0,26.0,30.23,NE,55,6.0,7.0,72,0.00,,,0.00,,2013-04-06 07:33:00,
2013-04-06 03:43:00,34.0,26.0,30.23,NE,55,6.0,7.0,72,0.00,,,0.00,,2013-04-06 07:43:00,
2013-04-06 03:53:00,35.0,27.0,30.22,ENE,78,8.0,11.0,71,0.00,,,0.00,,2013-04-06 07:53:00,
2013-04-06 04:02:00,35.0,26.0,30.23,ENE,69,6.0,11.0,70,0.00,,,0.00,,2013-04-06 08:02:00,
2013-04-06 04:13:00,35.0,26.0,30.23,ENE,69,6.0,11.0,70,0.00,,,0.00,,2013-04-06 08:13:00,
2013-04-06 04:22:00,35.0,27.0,30.22,ENE,69,7.0,18.0,71,0.00,,,0.00,,2013-04-06 08:22:00,
2013-04-06 04:32:00,35.0,27.0,30.23,ENE,67,6.0,9.0,71,0.00,,,0.00,,2013-04-06 08:32:00,
2013-04-06 04:42:00,35.0,27.0,30.23,ENE,67,6.0,9.0,71,0.00,,,0.00,,2013-04-06 08:42:00,
2013-04-06 04:52:00,35.0,26.0,30.23,ENE,60,5.0,12.0,69,0.00,,,0.00,,2013-04-06 08:52:00,
2013-04-06 05:02:00,35.0,26.0,30.23,ENE,69,6.0,11.0,69,0.00,,,0.00,,2013-04-06 09:02:00,
2013-04-06 05:12:00,35.0,26.0,30.23,ENE,69,6.0,11.0,69,0.00,,,0.00,,2013-04-06 09:12:00,
2013-04-06 05:22:00,35.0,26.0,30.24,ENE,59,6.0,11.0,69,0.00,,,0.00,,2013-04-06 09:22:00,
2013-04-06 05:33:00,35.0,26.0,30.24,ENE,64,4.0,11.0,68,0.00,,,0.00,,2013-04-06 09:33:00,
2013-04-06 05:43:00,35.0,26.0,30.24,ENE,64,4.0,11.0,68,0.00,,,0.00,,2013-04-06 09:43:00,
2013-04-06 05:53:00,34.0,25.0,30.24,ENE,65,6.0,9.0,69,0.00,,,0.00,,2013-04-06 09:53:00,
2013-04-06 06:03:00,35.0,26.0,30.24,NE,56,7.0,9.0,68,0.00,,,0.00,,2013-04-06 10:03:00,
2013-04-06 06:13:00,35.0,26.0,30.24,NE,56,7.0,9.0,68,0.00,,,0.00,,2013-04-06 10:13:00,
2013-04-06 06:23:00,35.0,24.0,30.24,ENE,59,7.0,11.0,65,0.00,,,0.00,,2013-04-06 10:23:00,
2013-04-06 06:33:00,35.0,24.0,30.26,ESE,105,7.0,10.0,63,0.00,,,0.00,,2013-04-06 10:33:00,
2013-04-06 06:42:00,35.0,24.0,30.26,ESE,105,7.0,10.0,63,0.00,,,0.00,,2013-04-06 10:42:00,
2013-04-06 06:53:00,35.0,23.0,30.26,East,89,6.0,10.0,61,0.00,,,0.00,,2013-04-06 10:53:00,
2013-04-06 07:02:00,35.0,22.0,30.26,East,82,5.0,9.0,59,0.00,,,0.00,,2013-04-06 11:02:00,
2013-04-06 07:12:00,35.0,22.0,30.26,East,82,5.0,9.0,59,0.00,,,0.00,,2013-04-06 11:12:00,
2013-04-06 07:23:00,35.0,22.0,30.26,East,98,4.0,7.0,58,0.00,,,0.00,,2013-04-06 11:23:00,
2013-04-06 07:33:00,35.0,21.0,30.26,ESE,104,4.0,11.0,57,0.00,,,0.00,,2013-04-06 11:33:00,
2013-04-06 07:43:00,35.0,21.0,30.26,ESE,104,4.0,11.0,57,0.00,,,0.00,,2013-04-06 11:43:00,
2013-04-06 07:53:00,35.0,20.0,30.27,ESE,107,7.0,11.0,55,0.00,,,0.00,,2013-04-06 11:53:00,
2013-04-06 08:02:00,36.0,20.0,30.27,ESE,114,10.0,16.0,52,0.00,,,0.00,,2013-04-06 12:02:00,
2013-04-06 08:13:00,36.0,20.0,30.27,ESE,114,10.0,16.0,52,0.00,,,0.00,,2013-04-06 12:13:00,
2013-04-06 08:22:00,37.0,22.0,30.27,East,101,8.0,11.0,54,0.00,,,0.00,,2013-04-06 12:22:00,
2013-04-06 08:33:00,37.0,22.0,30.27,East,101,8.0,11.0,54,0.00,,,0.00,,2013-04-06 12:33:00,
2013-04-06 08:43:00,37.0,22.0,30.27,East,101,8.0,11.0,54,0.00,,,0.00,,2013-04-06 12:43:00,
2013-04-06 08:53:00,37.0,23.0,30.28,SE,140,10.0,14.0,56,0.00,,,0.00,,2013-04-06 12:53:00,
2013-04-06 09:03:00,37.0,23.0,30.28,SE,140,10.0,14.0,56,0.00,,,0.00,,2013-04-06 13:03:00,
2013-04-06 09:13:00,37.0,23.0,30.28,SE,140,10.0,14.0,56,0.00,,,0.00,,2013-04-06 13:13:00,
2013-04-06 09:24:00,40.0,22.0,30.27,ESE,110,15.0,21.0,49,0.00,,,0.00,,2013-04-06 13:24:00,
2013-04-06 09:32:00,40.0,22.0,30.27,ESE,110,15.0,21.0,49,0.00,,,0.00,,2013-04-06 13:32:00,
2013-04-06 09:43:00,40.0,22.0,30.27,ESE,110,15.0,21.0,49,0.00,,,0.00,,2013-04-06 13:43:00,
2013-04-06 09:54:00,41.0,23.0,30.27,ESE,117,17.0,23.0,49,0.00,,,0.00,,2013-04-06 13:54:00,
2013-04-06 10:04:00,41.0,23.0,30.27,ESE,117,17.0,23.0,49,0.00,,,0.00,,2013-04-06 14:04:00,
2013-04-06 10:12:00,43.0,23.0,30.25,ESE,103,18.0,24.0,44,0.00,,,0.00,,2013-04-06 14:12:00,
2013-04-06 10:22:00,43.0,23.0,30.25,ESE,103,18.0,24.0,44,0.00,,,0.00,,2013-04-06 14:22:00,
2013-04-06 10:33:00,43.0,22.0,30.25,ESE,117,18.0,23.0,42,0.00,,,0.00,,2013-04-06 14:33:00,
2013-04-06 10:43:00,43.0,22.0,30.25,ESE,117,18.0,23.0,42,0.00,,,0.00,,2013-04-06 14:43:00,
2013-04-06 10:53:00,44.0,21.0,30.24,ESE,105,16.0,24.0,40,0.00,,,0.00,,2013-04-06 14:53:00,
2013-04-06 11:02:00,45.0,22.0,30.24,East,98,14.0,21.0,39,0.00,,,0.00,,2013-04-06 15:02:00,
2013-04-06 11:12:00,45.0,22.0,30.24,East,98,14.0,21.0,39,0.00,,,0.00,,2013-04-06 15:12:00,
2013-04-06 11:23:00,47.0,21.0,30.24,East,101,15.0,23.0,36,0.00,,,0.00,,2013-04-06 15:23:00,
2013-04-06 11:33:00,47.0,21.0,30.23,ENE,71,14.0,22.0,35,0.00,,,0.00,,2013-04-06 15:33:00,
2013-04-06 11:43:00,47.0,21.0,30.23,ENE,71,14.0,22.0,35,0.00,,,0.00,,2013-04-06 15:43:00,
2013-04-06 11:53:00,49.0,24.0,30.23,ESE,110,18.0,26.0,37,0.00,,,0.00,,2013-04-06 15:53:00,
2013-04-06 12:05:00,50.0,25.0,30.24,SSE,150,12.0,19.0,37,0.00,,,0.00,,2013-04-06 16:05:00,
2013-04-06 12:17:00,50.0,25.0,30.24,SSE,150,12.0,19.0,37,0.00,,,0.00,,2013-04-06 16:17:00,
2013-04-06 12:23:00,50.0,25.0,30.23,ESE,119,13.0,23.0,37,0.00,,,0.00,,2013-04-06 16:23:00,
2013-04-06 12:33:00,51.0,26.0,30.23,SE,134,10.0,19.0,37,0.00,,,0.00,,2013-04-06 16:33:00,
2013-04-06 12:42:00,51.0,26.0,30.23,SE,134,10.0,19.0,37,0.00,,,0.00,,2013-04-06 16:42:00,
2013-04-06 12:53:00,52.0,26.0,30.22,ESE,118,12.0,21.0,36,0.00,,,0.00,,2013-04-06 16:53:00,
2013-04-06 13:03:00,53.0,27.0,30.20,ESE,121,12.0,21.0,36,0.00,,,0.00,,2013-04-06 17:03:00,
2013-04-06 13:12:00,53.0,27.0,30.20,ESE,121,12.0,21.0,36,0.00,,,0.00,,2013-04-06 17:12:00,
2013-04-06 13:22:00,54.0,28.0,30.20,SSE,159,8.0,25.0,37,0.00,,,0.00,,2013-04-06 17:22:00,
2013-04-06 13:33:00,54.0,28.0,30.19,South,173,15.0,22.0,36,0.00,,,0.00,,2013-04-06 17:33:00,
2013-04-06 13:42:00,54.0,28.0,30.19,South,173,15.0,22.0,36,0.00,,,0.00,,2013-04-06 17:42:00,
2013-04-06 13:52:00,55.0,29.0,30.17,ESE,122,16.0,28.0,36,0.00,,,0.00,,2013-04-06 17:52:00,
2013-04-06 14:03:00,55.0,29.0,30.17,ESE,111,18.0,25.0,36,0.00,,,0.00,,2013-04-06 18:03:00,
2013-04-06 14:12:00,55.0,29.0,30.17,ESE,111,18.0,25.0,36,0.00,,,0.00,,2013-04-06 18:12:00,
2013-04-06 14:23:00,55.0,29.0,30.15,ESE,107,15.0,22.0,37,0.00,,,0.00,,2013-04-06 18:23:00,
2013-04-06 14:32:00,56.0,31.0,30.14,ESE,102,19.0,25.0,38,0.00,,,0.00,,2013-04-06 18:32:00,
2013-04-06 14:42:00,56.0,31.0,30.14,ESE,102,19.0,25.0,38,0.00,,,0.00,,2013-04-06 18:42:00,
2013-04-06 14:52:00,55.0,30.0,30.13,SE,142,15.0,25.0,38,0.00,,,0.00,,2013-04-06 18:52:00,
2013-04-06 15:03:00,55.0,30.0,30.13,SE,142,15.0,25.0,38,0.00,,,0.00,,2013-04-06 19:03:00,
2013-04-06 15:12:00,55.0,30.0,30.13,SE,142,15.0,25.0,38,0.00,,,0.00,,2013-04-06 19:12:00,
2013-04-06 15:23:00,56.0,31.0,30.11,ESE,107,10.0,20.0,39,0.00,,,0.00,,2013-04-06 19:23:00,
2013-04-06 15:33:00,57.0,32.0,30.10,SE,131,16.0,20.0,38,0.00,,,0.00,,2013-04-06 19:33:00,
2013-04-06 15:42:00,57.0,32.0,30.10,SE,131,16.0,20.0,38,0.00,,,0.00,,2013-04-06 19:42:00,
2013-04-06 15:54:00,57.0,32.0,30.09,ESE,110,17.0,24.0,38,0.00,,,0.00,,2013-04-06 19:54:00,
2013-04-06 16:03:00,57.0,32.0,30.08,ESE,123,14.0,22.0,38,0.00,,,0.00,,2013-04-06 20:03:00,
2013-04-06 16:12:00,57.0,32.0,30.08,ESE,123,14.0,22.0,38,0.00,,,0.00,,2013-04-06 20:12:00,
2013-04-06 16:22:00,58.0,33.0,30.06,ESE,104,18.0,24.0,38,0.00,,,0.00,,2013-04-06 20:22:00,
2013-04-06 16:32:00,57.0,32.0,30.05,ESE,110,14.0,23.0,38,0.00,,,0.00,,2013-04-06 20:32:00,
2013-04-06 16:42:00,57.0,32.0,30.05,ESE,110,14.0,23.0,38,0.00,,,0.00,,2013-04-06 20:42:00,
2013-04-06 16:53:00,58.0,33.0,30.03,ESE,102,20.0,27.0,38,0.00,,,0.00,,2013-04-06 20:53:00,
2013-04-06 17:02:00,59.0,33.0,30.02,SE,134,19.0,25.0,38,0.00,,,0.00,,2013-04-06 21:02:00,
2013-04-06 17:13:00,59.0,34.0,30.00,ESE,122,21.0,27.0,39,0.00,,,0.00,,2013-04-06 21:13:00,
2013-04-06 17:22:00,59.0,34.0,30.00,ESE,122,21.0,27.0,39,0.00,,,0.00,,2013-04-06 21:22:00,
2013-04-06 17:33:00,59.0,34.0,30.00,ESE,114,15.0,26.0,39,0.00,,,0.00,,2013-04-06 21:33:00,
2013-04-06 17:43:00,59.0,34.0,30.00,ESE,114,15.0,26.0,39,0.00,,,0.00,,2013-04-06 21:43:00,
2013-04-06 17:53:00,59.0,35.0,29.99,ESE,107,15.0,22.0,40,0.00,,,0.00,,2013-04-06 21:53:00,
2013-04-06 18:03:00,59.0,33.0,29.99,ESE,105,19.0,24.0,38,0.00,,,0.00,,2013-04-06 22:03:00,
2013-04-06 18:13:00,59.0,33.0,29.99,ESE,105,19.0,24.0,38,0.00,,,0.00,,2013-04-06 22:13:00,
2013-04-06 18:23:00,59.0,34.0,29.97,ESE,105,19.0,27.0,39,0.00,,,0.00,,2013-04-06 22:23:00,
2013-04-06 18:34:00,59.0,35.0,29.97,ESE,117,17.0,23.0,40,0.00,,,0.00,,2013-04-06 22:34:00,
2013-04-06 18:43:00,59.0,35.0,29.97,ESE,117,17.0,23.0,40,0.00,,,0.00,,2013-04-06 22:43:00,
2013-04-06 18:55:00,59.0,35.0,29.97,ESE,118,15.0,21.0,40,0.00,,,0.00,,2013-04-06 22:55:00,
2013-04-06 19:03:00,59.0,35.0,29.96,ESE,107,12.0,20.0,41,0.00,,,0.00,,2013-04-06 23:03:00,
2013-04-06 19:14:00,59.0,35.0,29.96,ESE,107,12.0,20.0,41,0.00,,,0.00,,2013-04-06 23:14:00,
2013-04-06 19:23:00,60.0,36.0,29.95,SE,146,14.0,21.0,41,0.00,,,0.00,,2013-04-06 23:23:00,
2013-04-06 19:34:00,59.0,36.0,29.95,SE,133,13.0,19.0,42,0.00,,,0.00,,2013-04-06 23:34:00,
2013-04-06 19:43:00,59.0,36.0,29.95,SE,133,13.0,19.0,42,0.00,,,0.00,,2013-04-06 23:43:00,
2013-04-06 19:53:00,59.0,35.0,29.95,SE,124,12.0,19.0,41,0.00,,,0.00,,2013-04-06 23:53:00,
2013-04-06 20:02:00,59.0,36.0,29.95,ESE,115,13.0,18.0,42,0.00,,,0.00,,2013-04-07 00:02:00,
2013-04-06 20:13:00,59.0,36.0,29.95,ESE,115,13.0,18.0,42,0.00,,,0.00,,2013-04-07 00:13:00,
2013-04-06 20:22:00,58.0,36.0,29.94,ESE,119,11.0,17.0,43,0.00,,,0.00,,2013-04-07 00:22:00,
2013-04-06 20:33:00,58.0,36.0,29.94,SE,136,12.0,20.0,43,0.00,,,0.00,,2013-04-07 00:33:00,
2013-04-06 20:43:00,58.0,36.0,29.94,SE,136,12.0,20.0,43,0.00,,,0.00,,2013-04-07 00:43:00,
2013-04-06 20:53:00,58.0,36.0,29.93,ESE,110,14.0,20.0,43,0.00,,,0.00,,2013-04-07 00:53:00,
2013-04-06 21:02:00,58.0,36.0,29.94,SE,133,11.0,18.0,43,0.00,,,0.00,,2013-04-07 01:02:00,
2013-04-06 21:12:00,58.0,36.0,29.94,SE,133,11.0,18.0,43,0.00,,,0.00,,2013-04-07 01:12:00,
2013-04-06 21:23:00,58.0,37.0,29.93,ESE,112,12.0,22.0,45,0.00,,,0.00,,2013-04-07 01:23:00,
2013-04-06 21:32:00,57.0,36.0,29.93,SE,125,12.0,16.0,45,0.00,,,0.00,,2013-04-07 01:32:00,
2013-04-06 21:43:00,57.0,36.0,29.93,SE,125,12.0,16.0,45,0.00,,,0.00,,2013-04-07 01:43:00,
2013-04-06 21:53:00,57.0,36.0,29.92,ESE,111,14.0,18.0,46,0.00,,,0.00,,2013-04-07 01:53:00,
2013-04-06 22:03:00,57.0,36.0,29.92,SE,134,13.0,23.0,45,0.00,,,0.00,,2013-04-07 02:03:00,
2013-04-06 22:12:00,57.0,36.0,29.92,SE,134,13.0,23.0,45,0.00,,,0.00,,2013-04-07 02:12:00,
2013-04-06 22:23:00,57.0,36.0,29.91,SE,132,14.0,18.0,45,0.00,,,0.00,,2013-04-07 02:23:00,
2013-04-06 22:33:00,57.0,36.0,29.91,ESE,121,14.0,19.0,45,0.00,,,0.00,,2013-04-07 02:33:00,
2013-04-06 22:43:00,57.0,36.0,29.91,ESE,121,14.0,19.0,45,0.00,,,0.00,,2013-04-07 02:43:00,
2013-04-06 22:52:00,56.0,35.0,29.89,East,101,16.0,21.0,45,0.00,,,0.00,,2013-04-07 02:52:00,
2013-04-06 23:02:00,57.0,36.0,29.89,ESE,120,15.0,23.0,45,0.00,,,0.00,,2013-04-07 03:02:00,
2013-04-06 23:12:00,57.0,36.0,29.89,ESE,120,15.0,23.0,45,0.00,,,0.00,,2013-04-07 03:12:00,
2013-04-06 23:22:00,57.0,36.0,29.89,ESE,120,15.0,23.0,45,0.00,,,0.00,,2013-04-07 03:22:00,
2013-04-06 23:35:00,57.0,36.0,29.88,SE,132,14.0,23.0,45,0.00,,,0.00,,2013-04-07 03:35:00,
2013-04-06 23:55:00,58.0,37.0,29.88,SSE,161,13.0,18.0,46,0.00,,,0.00,,2013-04-07 03:55:00,